When you browse on this site, cookies collect data to enhance your experience and personalize the content and advertising you see.
Visit our Privacy Policy to learn more. By continuing to use the site, you agree to this use of cookies and data.
  • In Austria
  • List of Countries
  • For 7 days
  • Water Temperature
  • Weather Map
  • News
  • Weather Widgets
  • user-avatar
    Login

    Hourly Weather Vetchin

    Today, 24 September, Tuesday

    Time Temperature Precipitation Wind Pressure Humidity
    00:00 +4°C° 0 mm 1 mps 753 mmHg 73%
    01:00 +3°C° 0 mm 1 mps 753 mmHg 74%
    02:00 +3°C° 0 mm 1 mps 753 mmHg 77%
    03:00 +3°C° 0 mm 1 mps 753 mmHg 78%
    04:00 +2°C° 0 mm 1 mps 753 mmHg 79%
    05:00 +2°C° 0 mm 1 mps 752 mmHg 80%
    06:00 +3°C° 0 mm 1 mps 753 mmHg 75%
    07:00 +5°C° 0 mm 1 mps 753 mmHg 70%
    08:00 +6°C° 0 mm 1 mps 753 mmHg 64%
    09:00 +8°C° 0 mm 1 mps 753 mmHg 58%
    10:00 +9°C° 0 mm 1 mps 753 mmHg 52%
    11:00 +11°C° 0 mm 1 mps 752 mmHg 46%
    12:00 +12°C° 0 mm 1 mps 752 mmHg 43%
    13:00 +12°C° 0 mm 1 mps 752 mmHg 41%
    14:00 +13°C° 0 mm 1 mps 751 mmHg 39%
    15:00 +12°C° 0 mm 1 mps 751 mmHg 43%
    16:00 +10°C° 0 mm 2 mps 751 mmHg 47%
    17:00 +10°C° 0 mm 2 mps 750 mmHg 52%
    18:00 +8°C° 0 mm 2 mps 751 mmHg 55%
    19:00 +6°C° 0 mm 2 mps 751 mmHg 59%
    20:00 +5°C° 0 mm 2 mps 751 mmHg 63%
    21:00 +4°C° 0 mm 2 mps 751 mmHg 65%
    22:00 +4°C° 0 mm 2 mps 751 mmHg 67%
    23:00 +3°C° 0 mm 2 mps 751 mmHg 69%

    Tomorrow, 25 September, Wednesday

    Time Temperature Precipitation Wind Pressure Humidity
    00:00 +3°C° 0 mm 2 mps 751 mmHg 70%
    01:00 +3°C° 0 mm 2 mps 751 mmHg 71%
    02:00 +2°C° 0 mm 2 mps 750 mmHg 72%
    03:00 +2°C° 0 mm 2 mps 750 mmHg 73%
    04:00 +2°C° 0 mm 2 mps 750 mmHg 74%
    05:00 +2°C° 0 mm 2 mps 750 mmHg 74%
    06:00 +2°C° 0 mm 3 mps 750 mmHg 70%
    07:00 +3°C° 0 mm 3 mps 750 mmHg 66%
    08:00 +4°C° 0 mm 3 mps 750 mmHg 62%
    09:00 +7°C° 0 mm 3 mps 750 mmHg 58%
    10:00 +9°C° 0 mm 3 mps 749 mmHg 53%
    11:00 +11°C° 0 mm 3 mps 749 mmHg 49%
    12:00 +12°C° 0 mm 3 mps 749 mmHg 48%
    13:00 +13°C° 0 mm 3 mps 749 mmHg 46%
    14:00 +14°C° 0 mm 3 mps 748 mmHg 45%
    15:00 +13°C° 0 mm 3 mps 748 mmHg 49%
    16:00 +13°C° 0 mm 3 mps 748 mmHg 54%
    17:00 +13°C° 0 mm 2 mps 747 mmHg 58%
    18:00 +11°C° 0 mm 3 mps 747 mmHg 59%
    19:00 +10°C° 0 mm 3 mps 747 mmHg 61%
    20:00 +9°C° 0 mm 3 mps 747 mmHg 62%
    21:00 +9°C° 0 mm 3 mps 747 mmHg 63%
    22:00 +9°C° 0 mm 3 mps 747 mmHg 64%
    23:00 +9°C° 0 mm 3 mps 747 mmHg 65%

    Day after tomorrow, 26 September, Thursday

    Time Temperature Precipitation Wind Pressure Humidity
    00:00 +8°C° 0 mm 3 mps 747 mmHg 66%
    01:00 +8°C° 0 mm 3 mps 746 mmHg 67%
    02:00 +8°C° 0 mm 3 mps 746 mmHg 68%
    03:00 +7°C° 0 mm 3 mps 746 mmHg 71%
    04:00 +7°C° 0 mm 3 mps 746 mmHg 75%
    05:00 +7°C° 0 mm 3 mps 746 mmHg 78%
    06:00 +7°C° 0.1 mm 3 mps 746 mmHg 79%
    07:00 +8°C° 0.1 mm 3 mps 746 mmHg 79%
    08:00 +8°C° 0.1 mm 3 mps 746 mmHg 80%
    09:00 +10°C° 0.1 mm 3 mps 747 mmHg 78%
    10:00 +12°C° 0.1 mm 3 mps 747 mmHg 75%
    11:00 +14°C° 0.1 mm 3 mps 747 mmHg 73%
    12:00 +14°C° 0.1 mm 3 mps 747 mmHg 71%
    13:00 +16°C° 0.1 mm 3 mps 747 mmHg 70%
    14:00 +17°C° 0.1 mm 3 mps 747 mmHg 69%
    15:00 +16°C° 0.1 mm 3 mps 747 mmHg 73%
    16:00 +14°C° 0.1 mm 3 mps 747 mmHg 77%
    17:00 +13°C° 0.1 mm 3 mps 747 mmHg 81%
    18:00 +12°C° 0 mm 3 mps 747 mmHg 85%
    19:00 +12°C° 0 mm 2 mps 748 mmHg 90%
    20:00 +9°C° 0 mm 2 mps 748 mmHg 94%
    21:00 +9°C° 0 mm 2 mps 748 mmHg 94%
    22:00 +9°C° 0 mm 2 mps 748 mmHg 93%
    23:00 +9°C° 0 mm 2 mps 749 mmHg 93%

    27 September, Friday

    Time Temperature Precipitation Wind Pressure Humidity
    00:00 +9°C° 0 mm 2 mps 749 mmHg 93%
    01:00 +9°C° 0 mm 2 mps 749 mmHg 93%
    02:00 +9°C° 0 mm 2 mps 749 mmHg 93%
    03:00 +8°C° 0 mm 2 mps 749 mmHg 94%
    04:00 +8°C° 0 mm 2 mps 750 mmHg 94%
    05:00 +8°C° 0 mm 2 mps 750 mmHg 95%
    06:00 +9°C° 0 mm 2 mps 750 mmHg 92%
    07:00 +10°C° 0 mm 1 mps 750 mmHg 90%
    08:00 +11°C° 0 mm 1 mps 750 mmHg 87%
    09:00 +12°C° 0 mm 1 mps 750 mmHg 80%
    10:00 +13°C° 0 mm 2 mps 751 mmHg 73%
    11:00 +15°C° 0 mm 2 mps 751 mmHg 66%
    12:00 +15°C° 0 mm 2 mps 751 mmHg 65%
    13:00 +15°C° 0 mm 1 mps 751 mmHg 63%
    14:00 +15°C° 0 mm 1 mps 750 mmHg 61%
    15:00 +15°C° 0 mm 1 mps 750 mmHg 64%
    16:00 +15°C° 0 mm 1 mps 750 mmHg 66%
    17:00 +14°C° 0 mm 1 mps 750 mmHg 69%
    18:00 +13°C° 0 mm 1 mps 750 mmHg 73%
    19:00 +11°C° 0 mm 1 mps 751 mmHg 77%
    20:00 +10°C° 0 mm 1 mps 751 mmHg 82%
    21:00 +10°C° 0 mm 1 mps 751 mmHg 84%
    22:00 +9°C° 0 mm 1 mps 751 mmHg 86%
    23:00 +9°C° 0 mm 1 mps 751 mmHg 88%

    28 September, Saturday

    Time Temperature Precipitation Wind Pressure Humidity
    00:00 +9°C° 0 mm 1 mps 751 mmHg 89%
    01:00 +8°C° 0 mm 1 mps 751 mmHg 90%
    02:00 +8°C° 0 mm 1 mps 751 mmHg 92%
    03:00 +8°C° 0 mm 1 mps 751 mmHg 92%
    04:00 +7°C° 0 mm 2 mps 750 mmHg 93%
    05:00 +7°C° 0 mm 2 mps 750 mmHg 94%
    06:00 +8°C° 0 mm 2 mps 750 mmHg 90%
    07:00 +9°C° 0 mm 3 mps 749 mmHg 87%
    08:00 +10°C° 0 mm 3 mps 749 mmHg 84%
    09:00 +10°C° 0.2 mm 4 mps 749 mmHg 84%
    10:00 +11°C° 0.2 mm 4 mps 749 mmHg 84%
    11:00 +11°C° 0.2 mm 4 mps 749 mmHg 84%
    12:00 +12°C° 0.8 mm 4 mps 748 mmHg 85%
    13:00 +12°C° 0.8 mm 4 mps 748 mmHg 85%
    14:00 +13°C° 0.8 mm 4 mps 747 mmHg 86%
    15:00 +14°C° 0.3 mm 3 mps 747 mmHg 86%
    16:00 +14°C° 0.3 mm 3 mps 747 mmHg 86%
    17:00 +16°C° 0.3 mm 3 mps 746 mmHg 85%
    18:00 +15°C° 0.1 mm 2 mps 746 mmHg 88%
    19:00 +14°C° 0.1 mm 2 mps 746 mmHg 90%
    20:00 +13°C° 0.1 mm 2 mps 746 mmHg 92%
    21:00 +13°C° 0 mm 2 mps 746 mmHg 93%
    22:00 +12°C° 0 mm 2 mps 746 mmHg 93%
    23:00 +12°C° 0 mm 2 mps 746 mmHg 93%

    29 September, Sunday

    Time Temperature Precipitation Wind Pressure Humidity
    00:00 +12°C° 0 mm 2 mps 746 mmHg 93%
    01:00 +10°C° 0 mm 2 mps 746 mmHg 93%
    02:00 +10°C° 0 mm 2 mps 746 mmHg 94%
    03:00 +10°C° 0.1 mm 2 mps 745 mmHg 95%
    04:00 +10°C° 0.1 mm 2 mps 745 mmHg 95%
    05:00 +10°C° 0.1 mm 2 mps 745 mmHg 96%
    06:00 +10°C° 0.2 mm 3 mps 745 mmHg 94%
    07:00 +11°C° 0.2 mm 3 mps 745 mmHg 92%
    08:00 +12°C° 0.2 mm 4 mps 745 mmHg 90%
    09:00 +13°C° 0.1 mm 4 mps 745 mmHg 83%
    10:00 +15°C° 0.1 mm 5 mps 745 mmHg 77%
    11:00 +16°C° 0.1 mm 5 mps 745 mmHg 70%
    12:00 +16°C° 0.4 mm 5 mps 745 mmHg 68%
    13:00 +17°C° 0.4 mm 6 mps 745 mmHg 65%
    14:00 +17°C° 0.4 mm 6 mps 745 mmHg 63%
    15:00 +16°C° 0.1 mm 5 mps 745 mmHg 66%
    16:00 +17°C° 0.1 mm 4 mps 745 mmHg 70%
    17:00 +16°C° 0.1 mm 3 mps 745 mmHg 74%
    18:00 +14°C° 0 mm 3 mps 745 mmHg 79%
    19:00 +13°C° 0 mm 2 mps 745 mmHg 83%
    20:00 +12°C° 0 mm 2 mps 745 mmHg 88%
    21:00 +12°C° 0 mm 2 mps 745 mmHg 88%
    22:00 +12°C° 0 mm 2 mps 745 mmHg 88%
    23:00 +12°C° 0 mm 2 mps 745 mmHg 87%
    Show more